Pratt, KS

6:26 AM CDT on June 28, 2017 (GMT -0500)
Pratt Industrial

Weather History for KPTT - February, 2014

Change the Weather History Date:

Saturday, February 1, 2014

  Actual Average (KP28) Record (KP28)
Temperature  
Mean Temperature 24 °F -  
Max Temperature 30 °F 43 °F 78 °F (1911)
Min Temperature 19 °F 23 °F -10 °F (1951)
Degree Days  
Heating Degree Days 40    
Moisture  
Dew Point 20 °F    
Average Humidity 84    
Maximum Humidity 100    
Minimum Humidity 74    
Precipitation  
Precipitation 0.00 in - - ()
Sea Level Pressure  
Sea Level Pressure 30.00 in    
Wind  
Wind Speed 13 mph (North)    
Max Wind Speed 22 mph    
Max Gust Speed 25 mph    
Visibility 10 miles    
Events Snow    
Averages and records for this station are not official NWS values.
T = Trace of Precipitation, MM = Missing Value Source: NWS Daily Summary

Daily Weather History Graph

Daily Weather History Graph

Search for Another Location

Airport or City:

Trip Planner

Search our weather history database for the weather conditions in past years. The results will help you decide how hot, cold, wet, or windy it might be!

Date:

Astronomy

Feb. 01, 2014 Rise Set
Actual Time 7:38 AM CST 5:58 PM CST
Civil Twilight 7:11 AM CST 6:26 PM CST
Nautical Twilight 6:39 AM CST 6:57 PM CST
Astronomical Twilight 6:09 AM CST 7:28 PM CST
Moon 8:32 AM CST (2/1) 8:32 PM CST (2/1)
Length of Visible Light 11h 15m
Length of Day
10h 20m
Waxing Crescent, 5% of the Moon is Illuminated
Feb 1
Waxing Crescent
Feb 6
First Quarter
Feb 14
Full
Feb 22
Last Quarter
Mar 1
New

Hourly Weather History & Observations

Time (CST) Temp. Windchill Dew Point Humidity Pressure Visibility Wind Dir Wind Speed Gust Speed Precip Events Conditions
12:15 AM 21.2 °F 11.7 °F 21.2 °F 100% 29.84 in 7.0 mi North 8.1 mph - N/A Snow Light Snow
12:35 AM 23.0 °F 13.1 °F 19.4 °F 86% 29.86 in 7.0 mi North 9.2 mph - N/A Snow Light Snow
12:55 AM 23.0 °F 11.7 °F 21.2 °F 93% 29.83 in 5.0 mi North 11.5 mph - N/A Snow Light Snow
1:15 AM 23.0 °F 15.8 °F 19.4 °F 86% 29.86 in 10.0 mi NNW 5.8 mph - N/A Snow Light Snow
1:35 AM 23.0 °F 13.9 °F 21.2 °F 93% 29.88 in 10.0 mi NW 8.1 mph - N/A   Overcast
1:55 AM 23.0 °F 12.4 °F 21.2 °F 93% 29.82 in 10.0 mi North 10.4 mph - N/A   Overcast
2:15 AM 23.0 °F 12.4 °F 21.2 °F 93% 29.85 in 10.0 mi NNW 10.4 mph - N/A   Overcast
2:35 AM 23.0 °F 10.1 °F 21.2 °F 93% 29.86 in 10.0 mi NNW 15.0 mph - N/A   Overcast
2:55 AM 21.2 °F 9.5 °F 19.4 °F 93% 29.86 in 10.0 mi NNW 11.5 mph - N/A   Overcast
3:15 AM 21.2 °F 10.9 °F 19.4 °F 93% 29.85 in 10.0 mi North 9.2 mph - N/A   Overcast
3:35 AM 21.2 °F 10.1 °F 19.4 °F 93% 29.84 in 10.0 mi North 10.4 mph - N/A   Overcast
3:55 AM 21.2 °F 10.1 °F 19.4 °F 93% 29.86 in 10.0 mi North 10.4 mph - N/A   Overcast
4:15 AM 21.2 °F 9.5 °F 19.4 °F 93% 29.84 in 10.0 mi North 11.5 mph - N/A   Overcast
4:35 AM 21.2 °F 10.1 °F 19.4 °F 93% 29.85 in 10.0 mi North 10.4 mph - N/A   Overcast
4:55 AM 21.2 °F 8.3 °F 19.4 °F 93% 29.85 in 10.0 mi NNW 13.8 mph - N/A   Overcast
5:15 AM 21.2 °F 7.3 °F 19.4 °F 93% 29.84 in 10.0 mi North 16.1 mph 19.6 mph N/A   Overcast
5:35 AM 21.2 °F 8.9 °F 19.4 °F 93% 29.86 in 10.0 mi NNW 12.7 mph 18.4 mph N/A   Overcast
5:55 AM 21.2 °F 8.9 °F 19.4 °F 93% 29.87 in 10.0 mi NNW 12.7 mph - N/A   Overcast
6:15 AM 21.2 °F 8.3 °F 19.4 °F 93% 29.87 in 10.0 mi North 13.8 mph - N/A   Overcast
6:35 AM 21.2 °F 9.5 °F 19.4 °F 93% 29.90 in 10.0 mi NNW 11.5 mph - N/A   Overcast
6:55 AM 21.2 °F 9.5 °F 19.4 °F 93% 29.89 in 10.0 mi North 11.5 mph - N/A   Overcast
7:15 AM 21.2 °F 7.8 °F 19.4 °F 93% 29.90 in 10.0 mi North 15.0 mph - N/A   Overcast
7:35 AM 21.2 °F 7.8 °F 19.4 °F 93% 29.90 in 10.0 mi North 15.0 mph - N/A   Overcast
7:55 AM 21.2 °F 6.8 °F 19.4 °F 93% 29.90 in 10.0 mi North 17.3 mph - N/A   Overcast
8:15 AM 21.2 °F 7.3 °F 19.4 °F 93% 29.92 in 10.0 mi North 16.1 mph - N/A   Overcast
8:35 AM 21.2 °F 8.3 °F 19.4 °F 93% 29.93 in 10.0 mi North 13.8 mph - N/A   Overcast
8:55 AM 23.0 °F 10.6 °F 19.4 °F 86% 29.94 in 10.0 mi North 13.8 mph - N/A   Overcast
9:15 AM 23.0 °F 11.7 °F 19.4 °F 86% 29.95 in 10.0 mi North 11.5 mph - N/A   Overcast
9:35 AM 23.0 °F 11.1 °F 19.4 °F 86% 29.96 in 10.0 mi North 12.7 mph - N/A   Overcast
9:55 AM 23.0 °F 13.1 °F 19.4 °F 86% 29.98 in 10.0 mi North 9.2 mph - N/A   Overcast
10:15 AM 24.8 °F 13.4 °F 21.2 °F 86% 29.98 in 10.0 mi North 12.7 mph - N/A   Overcast
10:35 AM 26.6 °F 15.2 °F 21.2 °F 80% 29.99 in 10.0 mi North 13.8 mph - N/A   Overcast
10:55 AM 26.6 °F 14.3 °F 21.2 °F 80% 29.99 in 10.0 mi North 16.1 mph - N/A   Overcast
11:15 AM 26.6 °F 15.2 °F 21.2 °F 80% 30.00 in 10.0 mi North 13.8 mph - N/A   Overcast
11:35 AM 26.6 °F 14.3 °F 21.2 °F 80% 29.99 in 10.0 mi North 16.1 mph - N/A   Overcast
11:55 AM 26.6 °F 14.7 °F 21.2 °F 80% 29.99 in 10.0 mi North 15.0 mph - N/A   Overcast
12:15 PM 28.4 °F 18.5 °F 21.2 °F 74% 29.99 in 10.0 mi North 11.5 mph - N/A   Overcast
12:35 PM 28.4 °F 18.5 °F 21.2 °F 74% 29.99 in 10.0 mi North 11.5 mph - N/A   Overcast
12:55 PM 28.4 °F 18.0 °F 21.2 °F 74% 29.97 in 10.0 mi North 12.7 mph - N/A   Overcast
1:15 PM 28.4 °F 18.0 °F 21.2 °F 74% 29.97 in 10.0 mi North 12.7 mph - N/A   Overcast
1:35 PM 28.4 °F 16.6 °F 23.0 °F 80% 29.97 in 10.0 mi North 16.1 mph 20.7 mph N/A   Mostly Cloudy
1:55 PM 28.4 °F 17.0 °F 23.0 °F 80% 29.97 in 10.0 mi North 15.0 mph - N/A   Overcast
2:15 PM 28.4 °F 17.5 °F 23.0 °F 80% 29.97 in 10.0 mi North 13.8 mph - N/A   Overcast
2:35 PM 30.2 °F 19.8 °F 23.0 °F 75% 29.98 in 10.0 mi North 13.8 mph - N/A   Overcast
2:55 PM 28.4 °F 17.0 °F 23.0 °F 80% 29.99 in 10.0 mi North 15.0 mph - N/A   Overcast
3:15 PM 28.4 °F 15.8 °F 21.2 °F 74% 30.00 in 10.0 mi North 18.4 mph - N/A   Overcast
3:35 PM 28.4 °F 17.5 °F 21.2 °F 74% 30.02 in 10.0 mi North 13.8 mph - N/A   Overcast
3:55 PM 28.4 °F 16.6 °F 21.2 °F 74% 30.03 in 10.0 mi North 16.1 mph - N/A   Overcast
4:15 PM 28.4 °F 17.0 °F 21.2 °F 74% 30.04 in 10.0 mi North 15.0 mph 18.4 mph N/A   Overcast
4:35 PM 28.4 °F 17.0 °F 21.2 °F 74% 30.04 in 10.0 mi North 15.0 mph - N/A   Overcast
4:55 PM 28.4 °F 16.2 °F 21.2 °F 74% 30.05 in 10.0 mi North 17.3 mph - N/A   Overcast
5:15 PM 28.4 °F 15.8 °F 21.2 °F 74% 30.07 in 10.0 mi North 18.4 mph 21.9 mph N/A   Overcast
5:35 PM 28.4 °F 15.8 °F 21.2 °F 74% 30.07 in 10.0 mi North 18.4 mph - N/A   Overcast
5:55 PM 26.6 °F 14.3 °F 21.2 °F 80% 30.09 in 10.0 mi North 16.1 mph 21.9 mph N/A   Overcast
6:15 PM 26.6 °F 14.3 °F 21.2 °F 80% 30.10 in 10.0 mi North 16.1 mph - N/A   Overcast
6:35 PM 26.6 °F 13.8 °F 21.2 °F 80% 30.11 in 10.0 mi North 17.3 mph 20.7 mph N/A   Overcast
6:55 PM 26.6 °F 13.1 °F 21.2 °F 80% 30.13 in 10.0 mi North 19.6 mph 24.2 mph N/A   Overcast
7:15 PM 24.8 °F 10.0 °F 19.4 °F 80% 30.14 in 10.0 mi North 21.9 mph - N/A   Overcast
7:35 PM 24.8 °F 10.3 °F 19.4 °F 80% 30.15 in 10.0 mi North 20.7 mph - N/A   Overcast
7:55 PM 23.0 °F 8.3 °F 17.6 °F 80% 30.17 in 10.0 mi North 19.6 mph 24.2 mph N/A   Overcast
8:15 PM 23.0 °F 8.3 °F 17.6 °F 80% 30.19 in 10.0 mi North 19.6 mph 24.2 mph N/A   Overcast
8:35 PM 23.0 °F 8.3 °F 17.6 °F 80% 30.20 in 10.0 mi North 19.6 mph - N/A   Overcast
8:55 PM 23.0 °F 8.3 °F 17.6 °F 80% 30.20 in 10.0 mi North 19.6 mph 25.3 mph N/A   Overcast
9:15 PM 23.0 °F 8.7 °F 17.6 °F 80% 30.20 in 10.0 mi North 18.4 mph 23.0 mph N/A   Overcast
9:35 PM 23.0 °F 9.2 °F 17.6 °F 80% 30.20 in 10.0 mi North 17.3 mph 25.3 mph N/A   Overcast
9:55 PM 21.2 °F 8.3 °F 17.6 °F 86% 30.21 in 10.0 mi North 13.8 mph 24.2 mph N/A   Overcast
10:15 PM 21.2 °F 6.8 °F 17.6 °F 86% 30.22 in 10.0 mi NNE 17.3 mph 23.0 mph N/A   Overcast
10:35 PM 21.2 °F 7.3 °F 15.8 °F 80% 30.23 in 10.0 mi North 16.1 mph - N/A   Overcast
10:55 PM 19.4 °F 7.2 °F 15.8 °F 86% 30.23 in 10.0 mi North 11.5 mph - N/A   Mostly Cloudy
11:15 PM 19.4 °F 7.9 °F 15.8 °F 86% 30.23 in 10.0 mi North 10.4 mph - N/A   Clear
11:35 PM 19.4 °F 7.2 °F 15.8 °F 86% 30.24 in 10.0 mi North 11.5 mph - N/A   Clear
11:55 PM 19.4 °F 7.2 °F 15.8 °F 86% 30.23 in 10.0 mi North 11.5 mph - N/A   Clear